Regional Weather Roundup
Issued by NWS State College, PA

Home | Current Version | Previous Version | Graphics & Text | Print | Product List | Glossary Off
Versions: 1 2 3 4 5 6 7 8 9 10 11 12 13 14 15 16 17 18 19 20 21 22 23 24 25 26 27 28 29 30 31 32 33 34 35 36 37 38 39 40 41 42 43 44 45 46 47 48 49 50

486
ASUS41 KCTP 280910
RWRCTP

REGIONAL WEATHER ROUNDUP
NATIONAL WEATHER SERVICE STATE COLLEGE PA
500 AM EDT SUN MAY 28 2017

Note: "fair" indicates few or no clouds below 12,000 feet with no
significant weather and/or obstructions to visibility.

* = STATION THAT DOES NOT REPORT PRECIPITATION /E.G. RAIN...SNOW...ETC/
    THUNDER OR FOG.

PAZ002>004-007>009-013>016-020>023-029>032-281000-
WESTERN PENNSYLVANIA

CITY           SKY/WX    TMP DP  RH WIND       PRES   REMARKS
ERIE           CLOUDY    50  48  93 E3        29.84F
MEADVILLE      CLEAR     53  52  96 E5        29.85F
FRANKLIN*      CLEAR     52  48  87 SE6       29.87F
NEW CASTLE     FAIR      53  53 100 CALM      29.86F FOG
BEAVER COUNTY  NOT AVBL
BUTLER*        CLOUDY    54  52  94 N5        29.87R
PITTSBURGH INT FOG       58  58 100 CALM      29.85S VSB 1/4
PITTSBURGH     FOG       58  56  93 N3        29.84S VSB 1/2
INDIANA*       CLEAR     54  54 100 CALM      29.90R
LATROBE        FOG       54  54 100 CALM      29.86R VSB 3/4
WASHINGTON CO* CLOUDY    55  54  94 CALM      29.86S VSB 3/4
$$

PAZ004>006-010>012-017>019-024>028-033>037-041-042-045-046-049>053-281000-
CENTRAL PENNSYLVANIA

CITY           SKY/WX    TMP DP  RH WIND       PRES   REMARKS
BRADFORD       CLOUDY    47  47 100 CALM      29.90R FOG
DUBOIS         FOG       51  49  92 SE3       29.88S VSB 3/4
CLEARFIELD     CLOUDY    51  51 100 N6        29.90R FOG
JOHNSTOWN      FOG       57  57 100 S5        29.89S VSB 1/2
ALTOONA        CLOUDY    60  60 100 CALM      29.89S FOG
STATE COLLEGE  FOG       54  54  99 CALM      29.89S VSB 1/4
WILLIAMSPORT   CLOUDY    60  57  89 CALM      29.88R
SELINSGROVE    CLEAR     53  52  96 CALM      29.90R FOG
FT INDIANTOWN  FOG       50  50 100 CALM      29.89S VSB 1/2
CAPITAL CITY   FOG       58  56  93 CALM      29.88F VSB 1/4
HARRISBURG     FOG       59  59 100 E3        29.88R VSB 1/4
YORK           FOG       57  57 100 NE3       29.88F VSB 1/4
$$

PAZ038>040-043-044-047-048-054-055-060>062-067>071-281000-
EASTERN PENNSYLVANIA

CITY           SKY/WX    TMP DP  RH WIND       PRES   REMARKS
SCRANTON       CLOUDY    61  56  83 E6        29.90R
MOUNT POCONO   CLOUDY    53  52  96 CALM      29.92F
ALLENTOWN      CLEAR     54  52  93 CALM      29.89F
QUAKERTOWN*    SUNNY     50  50 100 CALM      29.90F
READING        CLEAR     54  54 100 NE3       29.87F FOG
LANCASTER      FOG       58  58 100 CALM      29.88F VSB 1/4
COATESVILLE    FOG       55  55 100 CALM      29.90S VSB<1/4
POTTSTOWN      CLEAR     52  51  97 CALM      29.90F FOG
BLUE BELL      MOCLDY    54  54 100 CALM      29.90F
DOYLESTOWN     CLEAR     53  53 100 CALM      29.88S
WILLOW GROVE   NOT AVBL
NORTH PHILA    CLEAR     59  57  93 CALM      29.90R
PHILADELPHIA   MOCLDY    63  60  90 W3        29.89S
$$




USA.gov is the U.S. government's official web portal to all federal, state and local government web resources and services.